| time (UTC) | temp F | wind direction | speed MPH | gust MPH | rain 1hr in | rain 24hr in | rain mn in | humidity % | barometer mb |
| 20260504204553 | 68 | 238 | 8.0 | 14.0 | 0.00 | 0.00 | 0.00 | 24 | 1006.7 |
| 20260504204053 | 68 | 257 | 3.0 | 15.0 | 0.00 | 0.00 | 0.00 | 25 | 1006.7 |
| 20260504203552 | 68 | 241 | 9.0 | 21.0 | 0.00 | 0.00 | 0.00 | 24 | 1007.0 |
| 20260504203050 | 68 | 212 | 11.0 | 21.0 | 0.00 | 0.00 | 0.00 | 23 | 1006.8 |
| 20260504202550 | 69 | 221 | 8.0 | 18.0 | 0.00 | 0.00 | 0.00 | 22 | 1006.9 |
| 20260504202150 | 70 | 226 | 9.0 | 18.0 | 0.00 | 0.00 | 0.00 | 24 | 1006.9 |
| 20260504201550 | 69 | 258 | 5.0 | 12.0 | 0.00 | 0.00 | 0.00 | 24 | 1006.9 |
| 20260504201047 | 69 | 238 | 4.0 | 13.0 | 0.00 | 0.00 | 0.00 | 27 | 1006.9 |
| 20260504200546 | 69 | 258 | 8.0 | 13.0 | 0.00 | 0.00 | 0.00 | 23 | 1006.9 |
| 20260504200046 | 69 | 209 | 5.0 | 10.0 | 0.00 | 0.00 | 0.00 | 23 | 1006.9 |
| 20260504195544 | 69 | 227 | 4.0 | 9.0 | 0.00 | 0.00 | 0.00 | 24 | 1007.0 |
| 20260504195044 | 68 | 272 | 4.0 | 12.0 | 0.00 | 0.00 | 0.00 | 24 | 1006.9 |
| 20260504194550 | 69 | 262 | 6.0 | 12.0 | 0.00 | 0.00 | 0.00 | 22 | 1006.9 |
| 20260504194043 | 69 | 47 | 4.0 | 13.0 | 0.00 | 0.00 | 0.00 | 24 | 1007.0 |
| 20260504193542 | 69 | 212 | 4.0 | 19.0 | 0.00 | 0.00 | 0.00 | 24 | 1007.0 |
| 20260504193042 | 69 | 219 | 10.0 | 24.0 | 0.00 | 0.00 | 0.00 | 23 | 1006.9 |
| 20260504192541 | 69 | 255 | 10.0 | 20.0 | 0.00 | 0.00 | 0.00 | 21 | 1006.9 |
| 20260504192141 | 70 | 251 | 7.0 | 16.0 | 0.00 | 0.00 | 0.00 | 21 | 1007.1 |
| 20260504191545 | 70 | 266 | 6.0 | 19.0 | 0.00 | 0.00 | 0.00 | 23 | 1007.0 |
| 20260504191037 | 69 | 275 | 6.0 | 19.0 | 0.00 | 0.00 | 0.00 | 23 | 1006.9 |
| 20260504190536 | 69 | 216 | 7.0 | 17.0 | 0.00 | 0.00 | 0.00 | 24 | 1006.9 |
| 20260504190043 | 68 | 217 | 7.0 | 25.0 | 0.00 | 0.00 | 0.00 | 24 | 1007.0 |
| 20260504185634 | 68 | 228 | 13.0 | 25.0 | 0.00 | 0.00 | 0.00 | 21 | 1006.9 |
| 20260504185033 | 69 | 216 | 10.0 | 21.0 | 0.00 | 0.00 | 0.00 | 20 | 1007.0 |
| 20260504184544 | 68 | 247 | 8.0 | 18.0 | 0.00 | 0.00 | 0.00 | 21 | 1007.1 |
| 20260504184031 | 68 | 250 | 10.0 | 16.0 | 0.00 | 0.00 | 0.00 | 21 | 1007.2 |
| 20260504183531 | 68 | 264 | 4.0 | 20.0 | 0.00 | 0.00 | 0.00 | 24 | 1007.3 |
| 20260504183029 | 68 | 237 | 9.0 | 20.0 | 0.00 | 0.00 | 0.00 | 23 | 1007.3 |
| 20260504182528 | 68 | 217 | 11.0 | 19.0 | 0.00 | 0.00 | 0.00 | 20 | 1007.4 |
| 20260504182027 | 68 | 241 | 9.0 | 20.0 | 0.00 | 0.00 | 0.00 | 22 | 1007.7 |
| 20260504181525 | 68 | 248 | 10.0 | 23.0 | 0.00 | 0.00 | 0.00 | 22 | 1007.8 |
| 20260504181024 | 68 | 231 | 8.0 | 25.0 | 0.00 | 0.00 | 0.00 | 22 | 1007.7 |
| 20260504180523 | 67 | 184 | 10.0 | 25.0 | 0.00 | 0.00 | 0.00 | 21 | 1007.8 |
| 20260504180024 | 68 | 260 | 8.0 | 17.0 | 0.00 | 0.00 | 0.00 | 20 | 1007.8 |
| 20260504175520 | 67 | 262 | 9.0 | 20.0 | 0.00 | 0.00 | 0.00 | 21 | 1007.8 |
| 20260504175023 | 67 | 301 | 10.0 | 20.0 | 0.00 | 0.00 | 0.00 | 22 | 1007.8 |
| 20260504174518 | 67 | 187 | 9.0 | 19.0 | 0.00 | 0.00 | 0.00 | 23 | 1007.8 |
| 20260504174017 | 67 | 268 | 10.0 | 22.0 | 0.00 | 0.00 | 0.00 | 21 | 1007.8 |
| 20260504173516 | 67 | 223 | 7.0 | 22.0 | 0.00 | 0.00 | 0.00 | 25 | 1007.8 |
| 20260504173015 | 66 | 204 | 14.0 | 22.0 | 0.00 | 0.00 | 0.00 | 22 | 1007.8 |
| 20260504172514 | 66 | 213 | 11.0 | 22.0 | 0.00 | 0.00 | 0.00 | 22 | 1007.9 |
| 20260504172012 | 66 | 145 | 9.0 | 21.0 | 0.00 | 0.00 | 0.00 | 23 | 1007.9 |
| 20260504171514 | 66 | 224 | 10.0 | 21.0 | 0.00 | 0.00 | 0.00 | 23 | 1007.9 |
| 20260504171010 | 66 | 257 | 11.0 | 25.0 | 0.00 | 0.00 | 0.00 | 23 | 1008.0 |
| 20260504170509 | 66 | 214 | 11.0 | 21.0 | 0.00 | 0.00 | 0.00 | 22 | 1008.0 |
| 20260504151038 | 61 | 245 | 8.0 | 19.0 | 0.00 | 0.00 | 0.00 | 29 | 1009.4 |
| 20260504150538 | 61 | 219 | 10.0 | 17.0 | 0.00 | 0.00 | 0.00 | 30 | 1009.4 |
| 20260504141025 | 60 | 235 | 7.0 | 18.0 | 0.00 | 0.00 | 0.00 | 32 | 1009.6 |
| 20260504140525 | 59 | 244 | 7.0 | 13.0 | 0.00 | 0.00 | 0.00 | 33 | 1009.7 |
| 20260504130508 | 57 | 238 | 7.0 | 15.0 | 0.00 | 0.00 | 0.00 | 37 | 1010.3 |
| 20260504120147 | 49 | 252 | 5.0 | 12.0 | 0.00 | 0.00 | 0.00 | 43 | 1010.9 |
| 20260504110531 | 47 | 246 | 3.0 | 7.0 | 0.00 | 0.00 | 0.00 | 46 | 1010.7 |
| 20260504100515 | 44 | 200 | 1.0 | 7.0 | 0.00 | 0.00 | 0.00 | 49 | 1011.2 |
| 20260504081556 | 41 | 230 | 0.0 | 1.0 | 0.00 | 0.00 | 0.00 | 57 | 1011.0 |
| 20260504081056 | 41 | 229 | 0.0 | 1.0 | 0.00 | 0.00 | 0.00 | 57 | 1010.9 |
| 20260504080554 | 41 | 228 | 0.0 | 0.0 | 0.00 | 0.00 | 0.00 | 58 | 1010.9 |
| 20260504070145 | 41 | 204 | 0.0 | 0.0 | 0.00 | 0.00 | 0.00 | 58 | 1010.4 |
| 20260504050522 | 39 | 298 | 0.0 | 0.0 | 0.00 | 0.00 | 0.00 | 55 | 1010.8 |
| 20260504045519 | 39 | 298 | 0.0 | 2.0 | 0.00 | 0.00 | 0.00 | 51 | 1010.8 |
| 20260504045016 | 39 | 298 | 0.0 | 2.0 | 0.00 | 0.00 | 0.00 | 53 | 1010.8 |
| 20260504044517 | 38 | 293 | 1.0 | 1.0 | 0.00 | 0.00 | 0.00 | 55 | 1011.0 |
| 20260504044014 | 36 | 293 | 0.0 | 1.0 | 0.00 | 0.00 | 0.00 | 58 | 1011.0 |
| 20260504043513 | 36 | 293 | 0.0 | 0.0 | 0.00 | 0.00 | 0.00 | 58 | 1011.0 |
| 20260504043015 | 36 | 293 | 0.0 | 2.0 | 0.00 | 0.00 | 0.00 | 58 | 1010.9 |
| 20260504042510 | 36 | 293 | 1.0 | 2.0 | 0.00 | 0.00 | 0.00 | 57 | 1010.8 |
| 20260504042008 | 36 | 228 | 0.0 | 1.0 | 0.00 | 0.00 | 0.00 | 58 | 1010.9 |
| 20260504041506 | 36 | 301 | 0.0 | 0.0 | 0.00 | 0.00 | 0.00 | 56 | 1010.7 |
| 20260504041005 | 37 | 301 | 0.0 | 1.0 | 0.00 | 0.00 | 0.00 | 54 | 1010.7 |
| 20260504040503 | 37 | 301 | 1.0 | 2.0 | 0.00 | 0.00 | 0.00 | 54 | 1010.7 |
| 20260504040137 | 36 | 301 | 1.0 | 2.0 | 0.00 | 0.00 | 0.00 | 56 | 1010.6 |
| 20260504035601 | 35 | 299 | 0.0 | 1.0 | 0.00 | 0.00 | 0.00 | 58 | 1010.6 |
| 20260504035100 | 35 | 294 | 0.0 | 2.0 | 0.00 | 0.00 | 0.00 | 57 | 1010.6 |
| 20260504034603 | 35 | 294 | 1.0 | 2.0 | 0.00 | 0.00 | 0.00 | 58 | 1010.6 |
| 20260504034059 | 35 | 293 | 1.0 | 2.0 | 0.00 | 0.00 | 0.00 | 59 | 1010.6 |
| 20260504033558 | 35 | 293 | 1.0 | 2.0 | 0.00 | 0.00 | 0.00 | 60 | 1010.5 |
| 20260504033057 | 35 | 293 | 1.0 | 1.0 | 0.00 | 0.00 | 0.00 | 60 | 1010.5 |
| 20260504032556 | 35 | 293 | 1.0 | 1.0 | 0.00 | 0.00 | 0.00 | 60 | 1010.4 |
| 20260504032055 | 35 | 293 | 0.0 | 0.0 | 0.00 | 0.00 | 0.00 | 59 | 1010.5 |
| 20260504031601 | 36 | 293 | 0.0 | 1.0 | 0.00 | 0.00 | 0.00 | 58 | 1010.3 |
| 20260504031052 | 36 | 290 | 1.0 | 2.0 | 0.00 | 0.00 | 0.00 | 57 | 1010.3 |
| 20260504030551 | 36 | 290 | 1.0 | 2.0 | 0.00 | 0.00 | 0.00 | 57 | 1010.4 |
| 20260504030049 | 36 | 278 | 2.0 | 2.0 | 0.00 | 0.00 | 0.00 | 57 | 1010.3 |
| 20260504025554 | 36 | 278 | 1.0 | 2.0 | 0.00 | 0.00 | 0.00 | 58 | 1010.2 |
| 20260504025050 | 36 | 278 | 1.0 | 2.0 | 0.00 | 0.00 | 0.00 | 58 | 1010.3 |
| 20260504024549 | 36 | 278 | 1.0 | 2.0 | 0.00 | 0.00 | 0.00 | 58 | 1010.2 |
| 20260504024045 | 37 | 273 | 1.0 | 2.0 | 0.00 | 0.00 | 0.00 | 57 | 1010.2 |
| 20260504023543 | 37 | 273 | 1.0 | 2.0 | 0.00 | 0.00 | 0.00 | 56 | 1010.1 |
| 20260504023042 | 37 | 273 | 1.0 | 2.0 | 0.00 | 0.00 | 0.00 | 54 | 1010.1 |
| 20260504022542 | 38 | 273 | 1.0 | 2.0 | 0.00 | 0.00 | 0.00 | 53 | 1010.1 |
| 20260504022041 | 38 | 273 | 0.0 | 2.0 | 0.00 | 0.00 | 0.00 | 53 | 1010.0 |
| 20260504021540 | 38 | 273 | 1.0 | 2.0 | 0.00 | 0.00 | 0.00 | 54 | 1010.1 |
| 20260504021040 | 38 | 250 | 1.0 | 2.0 | 0.00 | 0.00 | 0.00 | 55 | 1010.1 |
| 20260504020538 | 38 | 250 | 0.0 | 2.0 | 0.00 | 0.00 | 0.00 | 53 | 1010.1 |
| 20260504020038 | 39 | 293 | 1.0 | 2.0 | 0.00 | 0.00 | 0.00 | 52 | 1010.0 |
| 20260504015538 | 39 | 293 | 1.0 | 2.0 | 0.00 | 0.00 | 0.00 | 50 | 1010.0 |
| 20260504015037 | 40 | 293 | 1.0 | 2.0 | 0.00 | 0.00 | 0.00 | 48 | 1010.0 |
| 20260504014540 | 40 | 293 | 1.0 | 2.0 | 0.00 | 0.00 | 0.00 | 47 | 1009.9 |
| 20260504014035 | 41 | 293 | 1.0 | 2.0 | 0.00 | 0.00 | 0.00 | 47 | 1009.8 |
| 20260504013535 | 41 | 293 | 1.0 | 2.0 | 0.00 | 0.00 | 0.00 | 47 | 1009.9 |
| 20260504013040 | 41 | 293 | 1.0 | 2.0 | 0.00 | 0.00 | 0.00 | 46 | 1009.9 |
| 20260504012533 | 42 | 293 | 1.0 | 2.0 | 0.00 | 0.00 | 0.00 | 45 | 1009.8 |
| 20260504012033 | 42 | 288 | 1.0 | 2.0 | 0.00 | 0.00 | 0.00 | 44 | 1009.8 |
| 20260504011537 | 42 | 288 | 1.0 | 2.0 | 0.00 | 0.00 | 0.00 | 43 | 1009.7 |
| 20260504011031 | 43 | 288 | 1.0 | 2.0 | 0.00 | 0.00 | 0.00 | 42 | 1009.7 |
| 20260504010532 | 43 | 288 | 1.0 | 2.0 | 0.00 | 0.00 | 0.00 | 42 | 1009.6 |
| 20260504010030 | 43 | 288 | 0.0 | 2.0 | 0.00 | 0.00 | 0.00 | 41 | 1009.5 |
| 20260504005530 | 44 | 288 | 0.0 | 0.0 | 0.00 | 0.00 | 0.00 | 40 | 1009.4 |
| 20260504005029 | 44 | 288 | 0.0 | 0.0 | 0.00 | 0.00 | 0.00 | 40 | 1009.4 |
| 20260504004530 | 44 | 288 | 0.0 | 0.0 | 0.00 | 0.00 | 0.00 | 40 | 1009.3 |
| 20260504004028 | 44 | 288 | 0.0 | 0.0 | 0.00 | 0.00 | 0.00 | 40 | 1009.3 |
| 20260504003527 | 45 | 288 | 0.0 | 0.0 | 0.00 | 0.00 | 0.00 | 38 | 1009.3 |
| 20260504003031 | 45 | 288 | 0.0 | 0.0 | 0.00 | 0.00 | 0.00 | 37 | 1009.1 |
| 20260504002526 | 45 | 288 | 0.0 | 0.0 | 0.00 | 0.00 | 0.00 | 36 | 1009.1 |
| 20260504002026 | 45 | 288 | 0.0 | 0.0 | 0.00 | 0.00 | 0.00 | 36 | 1009.0 |
| 20260504001526 | 46 | 288 | 0.0 | 0.0 | 0.00 | 0.00 | 0.00 | 35 | 1008.9 |
| 20260504001025 | 46 | 288 | 0.0 | 1.0 | 0.00 | 0.00 | 0.00 | 35 | 1008.9 |
| 20260504000524 | 46 | 288 | 0.0 | 1.0 | 0.00 | 0.00 | 0.00 | 34 | 1008.9 |
| 20260504000023 | 47 | 288 | 0.0 | 2.0 | 0.00 | 0.00 | 0.00 | 34 | 1008.8 |
| 20260503235522 | 47 | 288 | 0.0 | 2.0 | 0.00 | 0.00 | 0.00 | 34 | 1008.8 |
| 20260503235021 | 47 | 288 | 1.0 | 3.0 | 0.00 | 0.00 | 0.00 | 33 | 1008.7 |
| 20260503234524 | 48 | 307 | 0.0 | 6.0 | 0.00 | 0.00 | 0.00 | 34 | 1008.8 |
| 20260503234021 | 48 | 305 | 1.0 | 9.0 | 0.00 | 0.00 | 0.00 | 33 | 1008.7 |
| 20260503233521 | 48 | 297 | 3.0 | 9.0 | 0.00 | 0.00 | 0.00 | 32 | 1008.7 |
| 20260503233031 | 49 | 306 | 2.0 | 8.0 | 0.00 | 0.00 | 0.00 | 32 | 1008.7 |
| 20260503232620 | 49 | 273 | 2.0 | 10.0 | 0.00 | 0.00 | 0.00 | 31 | 1008.6 |
| 20260503232018 | 49 | 279 | 4.0 | 10.0 | 0.00 | 0.00 | 0.00 | 31 | 1008.5 |
| 20260503231517 | 49 | 276 | 2.0 | 9.0 | 0.00 | 0.00 | 0.00 | 31 | 1008.4 |
| 20260503231017 | 49 | 293 | 3.0 | 7.0 | 0.00 | 0.00 | 0.00 | 31 | 1008.4 |
| 20260503230515 | 49 | 243 | 3.0 | 7.0 | 0.00 | 0.00 | 0.00 | 31 | 1008.4 |
| 20260503230015 | 50 | 312 | 1.0 | 7.0 | 0.00 | 0.00 | 0.00 | 31 | 1008.4 |
| 20260503225515 | 50 | 172 | 2.0 | 6.0 | 0.00 | 0.00 | 0.00 | 33 | 1008.3 |
| 20260503225014 | 50 | 278 | 1.0 | 9.0 | 0.00 | 0.00 | 0.00 | 31 | 1008.3 |
| 20260503224514 | 50 | 342 | 2.0 | 5.0 | 0.00 | 0.00 | 0.00 | 32 | 1008.2 |
| 20260503224013 | 50 | 287 | 3.0 | 7.0 | 0.00 | 0.00 | 0.00 | 31 | 1008.2 |
| 20260503223513 | 50 | 291 | 2.0 | 9.0 | 0.00 | 0.00 | 0.00 | 33 | 1008.1 |
| 20260503223012 | 49 | 316 | 2.0 | 9.0 | 0.00 | 0.00 | 0.00 | 32 | 1008.3 |
| 20260503222511 | 49 | 326 | 2.0 | 6.0 | 0.00 | 0.00 | 0.00 | 34 | 1008.1 |
| 20260503222011 | 49 | 257 | 2.0 | 8.0 | 0.00 | 0.00 | 0.00 | 33 | 1008.1 |
| 20260503221517 | 50 | 302 | 2.0 | 10.0 | 0.00 | 0.00 | 0.00 | 33 | 1008.1 |
| 20260503221009 | 50 | 328 | 4.0 | 14.0 | 0.00 | 0.00 | 0.00 | 32 | 1008.0 |
| 20260503220508 | 49 | 319 | 5.0 | 14.0 | 0.00 | 0.00 | 0.00 | 31 | 1008.0 |
| 20260503220007 | 49 | 293 | 5.0 | 11.0 | 0.00 | 0.00 | 0.00 | 32 | 1008.0 |
| 20260503215508 | 50 | 297 | 5.0 | 10.0 | 0.00 | 0.00 | 0.00 | 30 | 1008.1 |
| 20260503215008 | 50 | 334 | 6.0 | 12.0 | 0.00 | 0.00 | 0.00 | 30 | 1008.0 |
| 20260503214508 | 50 | 288 | 4.0 | 12.0 | 0.00 | 0.00 | 0.00 | 30 | 1008.1 |
| 20260503214005 | 51 | 274 | 5.0 | 13.0 | 0.00 | 0.00 | 0.00 | 31 | 1008.0 |
| 20260503213504 | 50 | 285 | 5.0 | 11.0 | 0.00 | 0.00 | 0.00 | 32 | 1007.9 |
| 20260503213004 | 51 | 323 | 5.0 | 13.0 | 0.00 | 0.00 | 0.00 | 30 | 1007.9 |
| 20260503212502 | 50 | 13 | 4.0 | 14.0 | 0.00 | 0.00 | 0.00 | 32 | 1007.8 |
| 20260503212001 | 50 | 325 | 6.0 | 14.0 | 0.00 | 0.00 | 0.00 | 30 | 1007.8 |
| 20260503211502 | 51 | 279 | 5.0 | 15.0 | 0.00 | 0.00 | 0.00 | 31 | 1007.7 |
| 20260503211101 | 51 | 338 | 8.0 | 15.0 | 0.00 | 0.00 | 0.00 | 30 | 1007.6 |
| 20260503210701 | 50 | 290 | 5.0 | 12.0 | 0.00 | 0.00 | 0.00 | 32 | 1007.6 |
| 20260503205600 | 50 | 333 | 5.0 | 14.0 | 0.00 | 0.01 | 0.00 | 31 | 1007.5 |
| 20260503205058 | 51 | 317 | 6.0 | 14.0 | 0.00 | 0.01 | 0.00 | 30 | 1007.5 |